Location: Raleigh
(35.7720°N, 78.6390°W)
Time: 04:55:22
(UTC-04:00)

JAS-2 - Visible Passes

Search period start: 07 July 2015 00:00
Search period end: 17 July 2015 00:00
Orbit: 800 x 1322 km, 98.5° (Epoch: 05 July)

Date Brightness Start Highest point End Pass type
(mag) Time Alt. Az. Time Alt. Az. Time Alt. Az.
07 Jul 10.4 04:24:52 10° NNE 04:31:41 60° E 04:39:13 10° S visible
08 Jul 11.7 03:31:04 10° NE 03:36:24 24° E 03:42:21 10° SE visible
08 Jul 10.1 05:14:56 10° N 05:21:45 61° WNW 05:29:12 10° SSW visible
09 Jul 10.5 04:19:56 10° NNE 04:26:50 57° E 04:34:23 10° S visible
10 Jul 11.8 03:26:16 10° NE 03:31:30 22° E 03:37:19 10° SE visible
10 Jul 10.1 05:09:56 10° N 05:16:54 65° WNW 05:24:29 10° SSW visible
11 Jul 10.6 04:15:01 10° NNE 04:21:58 54° E 04:29:31 10° S visible
12 Jul 11.9 03:21:30 10° NE 03:26:35 21° E 03:32:17 10° SE visible
12 Jul 10.1 05:04:57 10° N 05:12:04 69° WNW 05:19:45 10° SSW visible
13 Jul 10.7 04:10:07 10° NNE 04:17:07 51° E 04:24:40 10° S visible
14 Jul 12.0 03:16:45 10° NE 03:21:41 20° E 03:27:12 10° SE visible
14 Jul 10.1 05:00:00 10° N 05:07:14 74° WNW 05:15:01 10° SSW visible
15 Jul 10.8 04:05:14 10° NNE 04:12:16 48° E 04:19:47 10° S visible
16 Jul 12.1 03:12:03 10° NE 03:16:46 19° E 03:22:05 10° SE visible
16 Jul 10.1 04:55:03 10° N 05:02:25 78° WNW 05:10:15 10° SSW visible
